Temp
69 68 68 68 70 76 76 77 77 76 80 81 80 81 81 80 80 79 79 78 78 79 79 78 76 76 75 77 75 76 73 74 72 70 71 76 73 73 75 75 74 72 71 71 71 69 66 62 64 68 68 70 72 72 73 73 73 72 71 73 74 74 75
70 68 68 69 69 74 74 77 77 79 79 80 81 80 81 81 79 79 79 78 78 78 79 77 78 79 77 76 75 74 73 72 71 71 70 73 74 73 73 74 73 69 71 69 71 71 69 66 64 65 65 70 71 71 72 72 73 73 73 73 75 76 74
71 69 67 67 71 72 75 75 77 77 79 78 79 80 80 81 80 79 79 79 78 79 80 80 78 76 76 76 75 74 74 73 74 73 72 73 75 73 72 73 73 72 71 70 71 70 66 68 65 66 66 66 64 68 72 72 72 72 73 73 74 76 75
70 69 68 70 73 73 75 75 76 77 78 78 78 78 79 80 79 80 79 79 79 79 80 79 78 79 77 76 76 76 74 72 74 74 74 74 74 74 73 75 71 72 69 66 66 69 64 63 67 67 68 70 69 66 69 73 73 74 75 74 74 74 76
68 70 69 70 72 73 75 74 76 77 77 77 77 77 77 78 79 79 79 79 79 79 79 80 80 81 80 79 78 77 76 76 76 75 74 73 73 74 73 75 73 73 71 71 70 70 69 65 69 68 66 70 73 73 73 73 77 75 76 76 76 75 76
66 69 72 72 73 75 75 76 76 76 77 76 77 77 77 78 79 77 78 78 78 79 79 80 80 80 80 80 78 77 77 75 75 75 75 72 72 73 74 74 75 73 72 72 69 71 73 74 71 70 73 75 69 70 74 75 73 74 75 76 78 77 76
68 70 70 74 75 76 77 77 77 77 78 77 77 78 78 79 79 78 78 78 79 79 79 78 79 80 79 81 78 77 76 76 77 75 75 74 72 72 71 72 73 71 69 71 67 73 73 74 73 71 71 71 71 71 74 74 76 73 73 74 77 79 77
65 68 75 76 77 78 78 77 78 78 77 78 78 78 79 78 78 78 78 78 78 78 78 78 79 78 78 81 79 76 76 76 76 76 75 75 73 72 70 72 69 69 69 68 75 74 78 75 75 74 72 67 67 70 69 73 75 74 73 75 78 78 78
68 72 75 77 78 78 78 78 78 77 78 78 78 78 78 78 77 77 78 78 78 77 78 78 78 79 78 78 77 76 75 78 75 75 75 75 74 75 74 73 72 71 74 76 76 75 79 78 76 75 74 72 68 65 70 70 72 71 76 73 75 78 79
70 75 76 76 77 78 78 78 77 77 76 77 77 77 77 78 78 78 78 77 76 77 77 78 79 79 78 78 77 77 76 77 77 77 77 76 76 75 76 76 75 73 76 78 75 77 77 77 78 77 78 74 73 69 66 66 68 70 73 76 72 76 79
75 77 77 76 77 77 77 77 76 75 75 77 77 77 78 77 77 78 77 76 76 77 77 78 80 79 79 78 78 78 78 78 77 77 78 77 76 76 76 76 77 77 77 76 76 76 77 77 78 78 79 78 76 72 70 67 67 71 72 77 78 76 78
77 77 78 78 77 77 77 76 76 76 77 77 77 77 77 78 77 77 77 76 76 77 77 78 78 78 79 78 78 78 78 78 78 77 78 77 77 76 75 75 77 75 76 76 77 77 77 77 78 79 79 79 77 75 72 70 67 72 77 74 77 79 78
79 78 77 77 77 77 78 77 76 76 76 77 76 76 78 78 77 77 77 77 76 77 77 77 78 79 78 77 77 78 78 79 79 78 78 78 80 77 76 75 76 76 76 77 76 76 77 78 79 81 80 78 79 78 75 72 70 68 75 76 76 78 79
77 78 78 78 77 78 78 78 77 77 78 77 77 76 78 78 79 78 78 78 78 77 77 77 78 78 78 77 78 78 79 80 79 79 78 78 80 78 77 76 76 77 77 76 76 77 78 79 80 80 80 80 78 78 78 74 71 70 73 77 76 78 79
77 78 77 77 77 78 77 77 76 75 75 76 77 77 79 78 78 79 79 79 78 78 77 78 78 78 78 77 77 78 78 79 79 78 78 78 78 79 77 76 77 77 78 78 76 79 79 79 81 81 80 80 80 79 79 77 74 71 69 73 75 79 77
76 76 76 76 76 77 76 76 77 76 76 77 78 78 78 77 78 79 79 79 79 79 78 78 78 78 77 77 77 77 78 78 77 77 77 78 79 79 77 76 76 77 77 76 76 78 78 80 82 81 80 80 79 79 80 80 75 71 70 71 75 75 75
74 74 75 76 76 76 76 77 77 77 78 78 78 78 78 79 79 79 78 79 79 79 79 78 78 78 78 78 78 77 78 77 78 78 79 80 80 78 77 75 75 76 77 75 77 77 79 80 79 79 78 78 77 77 77 77 77 74 73 71 73 77 76
69 74 75 76 75 76 77 77 77 79 78 78 79 78 78 79 78 79 77 79 79 79 79 79 78 78 78 78 78 78 78 79 78 79 79 79 77 79 77 77 77 77 77 76 76 77 78 77 80 79 78 79 78 77 77 76 78 78 74 72 72 76 76
64 71 74 75 75 75 76 77 77 78 79 78 78 78 78 79 78 79 79 80 80 80 80 79 79 79 79 79 78 78 78 78 78 79 78 79 79 79 78 78 78 78 77 75 75 76 77 76 78 78 78 79 81 78 76 76 76 76 76 75 73 73 75
66 67 71 74 75 76 77 77 77 78 78 78 77 77 78 79 78 79 80 80 80 79 79 79 79 78 79 79 78 78 77 77 78 78 79 79 79 79 79 79 78 78 77 78 77 76 76 76 76 76 77 77 78 77 74 75 76 75 74 74 74 74 74
66 68 70 73 75 75 76 76 77 78 78 77 77 78 78 77 78 79 79 80 80 80 79 79 80 79 80 79 77 77 77 77 77 77 77 78 78 78 78 78 78 79 79 78 77 77 76 76 77 76 77 77 77 76 75 75 74 75 74 74 73 73 74
67 68 70 71 73 75 75 75 77 77 77 77 77 78 78 78 77 78 79 79 80 79 78 78 79 78 79 78 78 77 77 77 77 76 76 77 77 78 78 78 78 77 70 63 56 59 59 61 72 71 71 73 74 74 74 75 71 74 74 72 72 73 73
67 67 67 68 69 71 74 75 75 76 76 76 76 77 78 78 78 77 77 77 77 76 77 75 56 45 51 70 77 77 77 77 77 77 76 76 76 77 77 77 74 60 59 59 58 52 52 49 52 64 71 72 72 71 71 72 72 71 70 71 71 70 70
67 67 67 67 68 69 69 70 71 72 73 74 74 76 76 76 76 76 76 75 74 75 75 66 42 42 42 43 66 76 76 76 77 76 75 75 75 75 76 78 76 68 67 65 65 50 47 51 51 48 47 49 56 66 70 69 70 72 66 67 64 64 65
64 66 66 67 67 66 66 66 66 68 69 69 70 72 73 74 74 74 75 75 74 73 67 46 41 42 41 41 47 65 76 77 76 76 77 76 77 76 75 75 76 75 75 75 75 70 58 48 48 49 49 48 46 45 48 62 67 68 70 70 67 67 67
61 62 63 63 63 63 62 60 62 65 66 67 69 68 68 68 69 70 70 71 72 73 63 42 42 43 43 42 43 53 76 77 76 76 76 76 77 76 75 75 73 73 74 67 71 74 75 70 50 45 46 45 44 44 46 45 46 62 68 67 67 68 70
60 61 61 61 61 61 61 59 60 61 62 64 65 65 66 66 66 65 65 66 67 65 56 44 41 41 43 41 42 46 73 74 75 76 76 76 75 74 75 74 71 71 72 71 72 73 74 74 72 68 68 70 72 63 47 43 41 40 51 65 67 67 70
62 62 63 63 64 64 61 60 61 62 62 62 63 65 65 65 65 65 66 67 66 57 50 40 39 40 40 41 40 45 66 71 73 74 73 69 70 74 74 74 74 73 74 71 68 66 70 71 69 69 71 71 71 71 72 72 70 70 69 69 71 71 71
64 64 63 64 63 63 62 62 63 65 65 65 66 66 67 67 66 67 67 68 62 56 50 39 39 39 40 41 39 54 64 67 69 71 71 69 65 68 73 74 73 74 73 74 56 50 60 70 72 71 69 70 71 70 68 49 43 45 53 60 63 63 66
60 60 60 61 60 59 60 63 65 67 67 67 67 67 66 66 67 66 67 65 61 58 54 42 39 39 39 38 45 59 64 69 69 69 70 67 67 74 72 74 74 73 70 68 52 49 48 55 69 69 68 68 68 69 68 56 43 39 39 39 39 39 40
62 61 62 62 61 60 60 60 61 64 66 66 65 66 67 66 65 64 61 61 61 57 53 44 39 39 39 38 42 54 63 68 68 66 68 70 73 73 73 63 65 72 70 63 45 43 43 57 68 67 67 67 66 66 68 64 62 53 40 41 40 40 42
61 61 61 61 61 60 61 62 61 60 60 63 66 66 66 65 64 64 63 61 57 58 55 48 39 39 38 39 44 53 61 66 67 67 70 71 70 70 71 63 52 51 56 49 40 46 40 52 66 67 67 66 63 63 65 66 63 61 60 61 60 59 57
60 61 61 60 61 61 64 65 65 64 62 61 62 63 60 62 62 62 62 62 62 62 58 53 44 38 38 39 38 47 58 63 63 62 63 63 64 63 60 59 53 42 42 42 42 39 43 40 58 65 66 65 63 60 62 64 64 65 63 63 63 62 62
60 61 62 60 58 59 61 62 63 64 65 66 65 63 61 62 61 61 60 59 55 56 56 55 46 37 39 39 38 42 60 61 60 64 65 63 64 65 64 60 61 42 42 41 41 39 40 40 42 58 62 65 62 54 50 62 62 54 65 64 63 63 64
59 60 62 63 61 59 60 62 62 62 63 62 61 60 59 59 59 60 60 59 58 57 54 51 56 42 38 39 39 39 54 57 51 55 61 65 66 66 66 62 59 46 39 41 38 39 38 40 38 53 59 48 40 42 60 63 67 64 64 65 65 64 64
58 59 60 62 62 62 63 62 63 63 62 62 62 61 60 60 59 59 60 60 59 56 54 52 45 49 40 40 39 40 38 44 39 51 57 60 65 67 67 59 53 40 40 39 38 37 38 37 40 52 46 43 47 41 46 64 65 64 63 64 64 63 64
58 58 59 60 61 61 61 63 63 64 66 65 64 64 64 64 64 62 61 60 59 57 54 51 46 45 46 38 42 40 41 39 39 48 52 60 65 62 59 58 50 36 39 39 38 38 38 38 50 42 40 42 41 45 60 62 59 62 59 56 57 60 62
MSLP
1015.93 1016.13 1016.25 1016.65 1016.45 1015.49 1015.49 1015.45 1015.57 1015.73 1015.57 1015.65 1015.81 1015.93 1015.97 1016.17 1016.29 1016.41 1016.53 1016.73 1016.89 1016.93 1017.09 1017.29 1017.53 1017.61 1017.93 1017.77 1018.01 1018.01 1018.65 1018.73 1019.05 1019.77 1019.65 1019.05 1019.61 1019.57 1019.37 1019.53 1019.77 1019.97 1020.09 1020.45 1020.73 1021.17 1021.65 1022.45 1022.53 1022.01 1022.01 1021.85 1021.65 1021.65 1021.73 1021.77 1021.81 1021.97 1022.09 1022.01 1022.01 1022.13 1022.09
1015.93 1016.13 1016.21 1016.33 1016.49 1015.69 1015.65 1015.41 1015.49 1015.49 1015.57 1015.61 1015.73 1015.93 1015.97 1016.05 1016.29 1016.41 1016.53 1016.73 1016.89 1017.01 1017.09 1017.33 1017.25 1017.41 1017.65 1017.89 1018.17 1018.45 1018.77 1019.05 1019.17 1019.53 1019.69 1019.53 1019.37 1019.73 1019.77 1019.65 1020.01 1020.53 1020.41 1020.89 1020.57 1020.81 1021.13 1021.65 1022.21 1022.29 1022.53 1021.93 1021.81 1021.89 1021.81 1021.85 1021.97 1021.97 1022.05 1022.17 1022.09 1022.09 1022.21
1015.57 1015.81 1016.09 1016.53 1016.05 1015.73 1015.53 1015.53 1015.37 1015.53 1015.61 1015.81 1015.89 1015.89 1015.97 1016.09 1016.25 1016.37 1016.57 1016.77 1016.93 1016.97 1016.93 1017.17 1017.49 1017.69 1017.81 1018.01 1018.29 1018.61 1018.77 1018.97 1018.89 1019.17 1019.41 1019.45 1019.33 1019.77 1019.97 1019.89 1020.01 1020.25 1020.53 1020.69 1020.61 1020.85 1021.33 1021.21 1021.77 1022.05 1022.17 1022.45 1022.77 1022.33 1021.93 1021.97 1022.09 1022.13 1022.17 1022.25 1022.25 1022.17 1022.29
1015.49 1015.73 1016.21 1016.21 1015.73 1015.49 1015.41 1015.49 1015.49 1015.49 1015.53 1015.85 1015.89 1016.05 1016.05 1016.17 1016.33 1016.37 1016.57 1016.77 1016.85 1016.97 1017.01 1017.33 1017.49 1017.65 1017.89 1018.09 1018.21 1018.41 1018.61 1019.05 1018.97 1019.05 1019.17 1019.29 1019.49 1019.65 1019.77 1019.69 1020.29 1020.25 1020.85 1021.25 1021.25 1020.93 1021.85 1022.17 1021.61 1021.73 1021.85 1021.77 1022.05 1022.61 1022.21 1021.81 1021.89 1021.93 1022.05 1022.17 1022.25 1022.33 1022.17
1015.61 1015.69 1016.01 1015.97 1015.49 1015.49 1015.33 1015.49 1015.37 1015.45 1015.61 1015.81 1016.01 1016.17 1016.33 1016.37 1016.45 1016.57 1016.61 1016.73 1016.93 1017.01 1017.13 1017.17 1017.33 1017.33 1017.61 1017.81 1018.09 1018.33 1018.49 1018.61 1018.65 1018.89 1019.17 1019.49 1019.61 1019.53 1019.73 1019.69 1020.05 1020.09 1020.53 1020.57 1020.65 1020.81 1021.09 1021.73 1021.13 1021.53 1022.05 1021.69 1021.45 1021.65 1021.81 1021.69 1021.45 1021.85 1021.85 1022.01 1022.13 1022.33 1022.29
1015.61 1015.77 1015.69 1015.53 1015.21 1015.17 1015.17 1015.21 1015.33 1015.49 1015.57 1015.93 1016.13 1016.25 1016.41 1016.45 1016.49 1016.77 1016.85 1016.93 1017.13 1017.21 1017.21 1017.29 1017.45 1017.41 1017.49 1017.73 1018.01 1018.33 1018.45 1018.69 1018.77 1018.81 1019.05 1019.37 1019.49 1019.65 1019.69 1019.69 1019.77 1020.13 1020.37 1020.25 1020.37 1020.37 1020.05 1019.97 1020.69 1021.05 1020.89 1020.85 1021.81 1021.97 1021.69 1021.57 1021.89 1021.97 1022.01 1022.05 1021.93 1022.09 1022.25
1015.93 1016.01 1015.77 1015.25 1015.09 1014.97 1014.89 1015.05 1015.13 1015.29 1015.49 1015.81 1016.01 1016.13 1016.37 1016.45 1016.61 1016.73 1016.89 1017.01 1017.13 1017.25 1017.45 1017.57 1017.57 1017.61 1017.73 1017.73 1018.17 1018.41 1018.53 1018.49 1018.57 1018.85 1019.01 1019.13 1019.37 1019.57 1019.81 1019.93 1020.01 1020.37 1020.41 1020.33 1020.89 1020.21 1020.05 1020.01 1020.25 1020.85 1021.09 1021.25 1021.49 1021.73 1021.53 1021.57 1021.49 1021.97 1022.21 1022.29 1021.93 1021.93 1022.33
1016.77 1016.29 1015.09 1014.97 1014.81 1014.69 1014.73 1015.01 1015.17 1015.33 1015.65 1015.81 1016.01 1016.17 1016.45 1016.65 1016.81 1016.93 1017.09 1017.25 1017.37 1017.57 1017.69 1017.81 1017.81 1017.89 1018.01 1017.77 1018.17 1018.53 1018.65 1018.57 1018.69 1018.81 1018.97 1019.09 1019.33 1019.61 1019.97 1019.85 1020.25 1020.33 1020.33 1020.49 1019.89 1019.93 1019.45 1019.85 1020.05 1020.41 1020.77 1021.77 1021.97 1021.65 1021.73 1021.57 1021.61 1021.85 1022.13 1022.13 1021.89 1022.05 1022.29
1016.01 1015.45 1014.93 1014.65 1014.53 1014.57 1014.85 1015.09 1015.33 1015.49 1015.61 1015.89 1016.05 1016.37 1016.61 1016.65 1016.93 1017.13 1017.25 1017.49 1017.65 1017.81 1017.89 1017.93 1017.93 1017.97 1018.13 1018.09 1018.45 1018.69 1018.85 1018.69 1018.97 1019.09 1019.09 1019.13 1019.29 1019.25 1019.41 1019.61 1020.13 1020.33 1019.97 1019.61 1019.61 1019.69 1019.33 1019.49 1019.77 1020.13 1020.53 1020.97 1021.65 1022.37 1021.85 1021.89 1021.77 1022.21 1021.73 1022.33 1022.33 1022.25 1022.29
1015.65 1014.81 1014.65 1014.69 1014.77 1014.85 1015.01 1015.21 1015.53 1015.77 1015.97 1016.13 1016.37 1016.49 1016.69 1016.73 1017.01 1017.25 1017.45 1017.73 1017.89 1017.93 1017.97 1018.01 1017.93 1018.05 1018.13 1018.21 1018.49 1018.69 1018.81 1018.69 1018.77 1018.89 1018.89 1019.01 1019.13 1019.17 1019.17 1019.21 1019.49 1019.77 1019.45 1019.29 1019.77 1019.53 1019.49 1019.65 1019.77 1019.89 1019.97 1020.53 1020.73 1021.65 1022.21 1022.61 1022.37 1022.17 1021.97 1021.77 1022.49 1022.45 1022.25
1014.57 1014.37 1014.45 1014.73 1014.85 1015.05 1015.25 1015.45 1015.69 1016.01 1016.21 1016.21 1016.41 1016.57 1016.69 1016.93 1017.25 1017.41 1017.69 1017.93 1018.01 1018.05 1018.13 1018.09 1018.01 1018.13 1018.17 1018.33 1018.45 1018.53 1018.61 1018.73 1018.89 1018.89 1018.81 1018.93 1019.09 1019.13 1019.17 1019.17 1019.17 1019.29 1019.29 1019.49 1019.57 1019.61 1019.69 1019.81 1019.81 1019.85 1019.81 1019.89 1020.41 1021.17 1021.57 1022.33 1022.49 1021.89 1022.13 1021.45 1021.45 1022.29 1022.61
1013.93 1014.17 1014.33 1014.57 1014.77 1015.13 1015.41 1015.65 1015.85 1016.01 1016.05 1016.25 1016.49 1016.69 1016.85 1017.09 1017.45 1017.69 1017.85 1018.09 1018.17 1018.21 1018.21 1018.21 1018.25 1018.33 1018.29 1018.53 1018.61 1018.73 1018.81 1018.77 1018.85 1018.97 1018.89 1018.97 1019.09 1019.13 1019.29 1019.29 1019.13 1019.29 1019.37 1019.49 1019.49 1019.53 1019.69 1019.81 1019.81 1019.77 1019.57 1019.65 1020.01 1020.61 1021.09 1021.73 1022.45 1021.73 1021.01 1021.53 1021.69 1021.93 1022.49
1013.61 1013.93 1014.25 1014.57 1014.85 1015.13 1015.33 1015.57 1015.97 1016.21 1016.29 1016.29 1016.57 1016.77 1016.85 1017.13 1017.53 1017.77 1017.89 1018.05 1018.25 1018.33 1018.37 1018.45 1018.37 1018.45 1018.53 1018.65 1018.77 1018.77 1018.77 1018.77 1018.89 1019.01 1019.05 1018.93 1018.89 1019.13 1019.29 1019.37 1019.29 1019.41 1019.41 1019.45 1019.61 1019.73 1019.81 1019.65 1019.33 1019.05 1019.37 1019.93 1019.77 1019.89 1020.53 1021.21 1021.73 1022.57 1021.69 1021.61 1021.93 1022.05 1022.25
1013.57 1013.85 1014.21 1014.53 1014.85 1015.05 1015.25 1015.49 1015.97 1016.17 1016.25 1016.41 1016.57 1016.89 1016.93 1017.21 1017.45 1017.65 1017.81 1018.05 1018.21 1018.41 1018.53 1018.57 1018.49 1018.57 1018.65 1018.81 1018.65 1018.69 1018.81 1018.69 1018.81 1018.89 1018.89 1019.01 1018.85 1019.13 1019.33 1019.45 1019.41 1019.33 1019.33 1019.65 1019.77 1019.85 1019.81 1019.65 1019.49 1019.57 1019.61 1019.85 1020.17 1020.13 1020.05 1020.65 1021.65 1022.37 1022.05 1021.57 1021.93 1022.09 1022.21
1013.65 1013.89 1014.29 1014.65 1014.97 1015.29 1015.61 1015.85 1016.17 1016.37 1016.57 1016.53 1016.61 1016.81 1016.93 1017.21 1017.37 1017.57 1017.73 1017.89 1018.13 1018.33 1018.49 1018.57 1018.61 1018.65 1018.77 1018.93 1018.97 1018.85 1018.89 1018.77 1018.77 1019.01 1018.93 1018.97 1019.05 1019.09 1019.33 1019.45 1019.45 1019.45 1019.41 1019.69 1019.93 1019.89 1019.89 1019.89 1019.73 1019.77 1019.81 1019.77 1020.09 1020.17 1020.01 1020.53 1021.37 1022.25 1022.73 1022.25 1022.13 1021.89 1022.37
1013.85 1014.09 1014.53 1014.85 1015.09 1015.33 1015.81 1016.01 1016.13 1016.41 1016.61 1016.65 1016.69 1016.77 1017.01 1017.25 1017.41 1017.53 1017.73 1017.89 1018.09 1018.33 1018.41 1018.57 1018.65 1018.73 1018.89 1019.09 1019.21 1019.13 1018.93 1018.85 1019.09 1019.17 1019.13 1019.09 1019.05 1019.17 1019.41 1019.61 1019.61 1019.69 1019.69 1019.97 1020.09 1019.81 1019.89 1019.81 1019.57 1019.81 1020.01 1019.97 1020.21 1020.29 1020.13 1020.17 1021.21 1022.05 1022.53 1022.49 1022.05 1022.29 1022.49
1014.25 1014.41 1014.73 1014.97 1015.13 1015.37 1015.69 1015.89 1016.05 1016.29 1016.45 1016.57 1016.73 1016.85 1016.97 1017.21 1017.41 1017.57 1017.77 1017.93 1018.05 1018.25 1018.37 1018.61 1018.73 1018.77 1018.97 1019.09 1019.21 1019.21 1019.09 1019.17 1019.17 1019.09 1018.97 1018.93 1019.09 1019.29 1019.53 1019.85 1019.93 1019.89 1019.93 1020.21 1020.09 1020.05 1019.97 1019.85 1019.85 1019.97 1020.29 1020.45 1020.69 1020.69 1020.69 1020.57 1020.65 1021.29 1021.97 1022.41 1022.09 1021.97 1022.21
1015.21 1014.69 1014.77 1014.85 1015.17 1015.37 1015.61 1015.77 1016.01 1016.21 1016.45 1016.69 1016.69 1016.93 1017.05 1017.17 1017.41 1017.57 1017.85 1017.93 1018.09 1018.21 1018.37 1018.53 1018.73 1018.85 1018.93 1019.01 1019.09 1019.17 1019.17 1019.17 1019.21 1019.13 1019.09 1019.09 1019.13 1019.25 1019.53 1019.65 1019.73 1019.85 1020.05 1020.21 1020.29 1020.33 1020.09 1020.33 1020.05 1020.21 1020.41 1020.37 1020.61 1020.89 1020.97 1021.01 1020.69 1020.69 1021.49 1022.01 1022.09 1021.61 1021.77
1015.65 1015.13 1014.97 1015.05 1015.37 1015.57 1015.73 1015.93 1016.13 1016.25 1016.45 1016.69 1016.81 1016.93 1017.09 1017.21 1017.45 1017.61 1017.85 1017.85 1017.97 1018.17 1018.25 1018.45 1018.65 1018.81 1018.93 1018.97 1019.09 1019.13 1019.17 1019.29 1019.29 1019.33 1019.45 1019.33 1019.29 1019.37 1019.41 1019.53 1019.61 1019.77 1020.05 1020.33 1020.45 1020.33 1020.21 1020.49 1020.41 1020.45 1020.53 1020.37 1020.13 1020.61 1021.01 1021.13 1021.17 1020.97 1021.21 1021.49 1021.77 1021.93 1021.69
1015.33 1015.49 1015.33 1015.29 1015.53 1015.73 1015.89 1016.05 1016.21 1016.37 1016.49 1016.65 1016.97 1017.17 1017.21 1017.33 1017.53 1017.53 1017.77 1017.77 1017.97 1018.13 1018.25 1018.45 1018.61 1018.77 1018.89 1019.01 1019.13 1019.33 1019.41 1019.41 1019.45 1019.49 1019.45 1019.41 1019.45 1019.49 1019.49 1019.57 1019.69 1019.77 1019.93 1020.01 1020.21 1020.33 1020.45 1020.57 1020.57 1020.61 1020.53 1020.57 1020.61 1020.57 1021.17 1021.13 1021.09 1021.25 1021.25 1021.33 1021.49 1021.65 1021.77
1015.41 1015.61 1015.69 1015.61 1015.73 1015.81 1015.97 1016.21 1016.25 1016.33 1016.53 1016.77 1017.05 1017.17 1017.37 1017.53 1017.69 1017.65 1017.73 1017.81 1017.93 1018.05 1018.29 1018.49 1018.61 1018.77 1018.89 1019.05 1019.25 1019.41 1019.49 1019.57 1019.65 1019.69 1019.61 1019.57 1019.57 1019.61 1019.65 1019.69 1019.77 1019.81 1019.85 1020.01 1020.21 1020.29 1020.37 1020.57 1020.49 1020.69 1020.57 1020.61 1020.69 1020.85 1020.89 1021.01 1021.17 1021.13 1021.25 1021.33 1021.45 1021.57 1021.57
1015.69 1015.93 1016.01 1016.05 1016.09 1016.05 1016.13 1016.37 1016.41 1016.45 1016.65 1016.89 1017.09 1017.13 1017.33 1017.49 1017.85 1017.85 1017.81 1017.89 1018.01 1018.21 1018.45 1018.53 1018.69 1018.93 1018.93 1019.13 1019.29 1019.45 1019.53 1019.61 1019.69 1019.85 1019.85 1019.81 1019.81 1019.77 1019.73 1019.77 1019.81 1020.05 1020.41 1020.57 1020.69 1020.85 1021.09 1021.17 1021.09 1021.25 1021.29 1021.09 1021.09 1021.01 1021.09 1021.05 1021.49 1021.13 1021.13 1021.57 1021.45 1021.33 1021.57
1016.09 1016.33 1016.57 1016.65 1016.69 1016.61 1016.49 1016.53 1016.61 1016.65 1016.85 1017.05 1017.29 1017.33 1017.49 1017.61 1017.85 1018.05 1018.25 1018.29 1018.41 1018.61 1018.61 1018.89 1019.45 1019.49 1019.61 1019.45 1019.33 1019.41 1019.53 1019.61 1019.65 1019.69 1019.93 1019.89 1019.97 1019.85 1019.77 1019.85 1020.17 1020.41 1020.53 1020.65 1020.77 1020.93 1021.09 1021.25 1021.49 1021.45 1021.41 1021.37 1021.41 1021.53 1021.45 1021.25 1021.33 1021.49 1021.45 1021.37 1021.53 1021.85 1021.73
1016.25 1016.65 1016.97 1017.17 1017.09 1017.09 1017.17 1017.21 1017.25 1017.21 1017.17 1017.29 1017.49 1017.61 1017.77 1017.97 1018.09 1018.25 1018.49 1018.77 1019.01 1019.01 1019.01 1019.49 1019.69 1019.73 1019.81 1019.93 1019.73 1019.49 1019.61 1019.65 1019.61 1019.69 1019.85 1019.89 1019.97 1020.05 1019.93 1019.77 1020.17 1020.49 1020.53 1020.69 1020.89 1021.05 1021.21 1021.37 1021.45 1021.61 1021.85 1022.01 1022.05 1021.93 1021.81 1021.73 1021.57 1021.25 1021.77 1021.81 1022.01 1022.57 1021.97
1016.57 1016.97 1017.25 1017.45 1017.61 1017.61 1017.69 1017.73 1017.81 1017.93 1017.93 1018.01 1018.09 1018.09 1018.21 1018.29 1018.37 1018.53 1018.65 1018.85 1019.13 1019.25 1019.85 1020.41 1020.09 1020.09 1020.17 1020.21 1020.29 1020.09 1019.61 1019.49 1019.65 1019.69 1019.65 1019.73 1019.73 1019.81 1020.05 1020.13 1020.01 1020.13 1020.29 1020.41 1020.41 1020.73 1021.01 1021.21 1021.37 1021.57 1021.65 1021.73 1021.85 1022.09 1022.17 1022.09 1022.01 1021.81 1021.41 1021.41 1021.61 1021.65 1021.73
1016.89 1017.33 1017.73 1018.05 1018.13 1018.21 1018.29 1018.33 1018.29 1018.37 1018.57 1018.49 1018.53 1018.77 1018.93 1019.05 1019.13 1019.17 1019.29 1019.33 1019.45 1019.49 1020.29 1020.89 1020.65 1020.53 1020.61 1020.57 1020.53 1020.41 1019.81 1019.45 1019.53 1019.61 1019.61 1019.57 1019.57 1019.61 1019.73 1019.81 1020.05 1020.17 1020.49 1020.45 1020.53 1020.49 1020.53 1020.81 1021.21 1021.37 1021.49 1021.61 1021.65 1021.57 1021.65 1021.89 1022.01 1021.97 1021.77 1021.81 1021.69 1021.41 1021.17
1017.25 1017.61 1017.97 1018.45 1018.69 1018.77 1018.73 1018.97 1018.93 1018.89 1018.97 1018.93 1018.89 1019.13 1019.25 1019.37 1019.53 1019.69 1019.73 1019.81 1019.93 1020.37 1021.13 1021.81 1021.45 1021.01 1021.05 1021.09 1021.05 1020.93 1020.21 1019.85 1019.69 1019.53 1019.49 1019.53 1019.53 1019.65 1019.57 1019.73 1020.13 1020.25 1020.29 1020.49 1020.41 1020.49 1020.61 1020.49 1020.73 1021.09 1021.25 1021.25 1021.05 1021.05 1021.29 1021.49 1021.57 1021.73 1021.81 1021.77 1021.65 1021.53 1020.97
1017.29 1017.65 1017.93 1018.21 1018.45 1018.57 1018.81 1019.09 1019.13 1019.13 1019.25 1019.13 1019.13 1019.29 1019.45 1019.57 1019.69 1019.81 1019.89 1020.01 1020.29 1021.21 1022.05 1022.25 1022.13 1021.65 1021.61 1021.69 1021.53 1021.33 1020.69 1020.29 1019.97 1019.81 1019.69 1020.05 1020.13 1019.45 1019.53 1019.57 1019.57 1019.73 1019.77 1020.13 1020.73 1020.89 1020.77 1020.77 1021.01 1021.05 1020.85 1020.89 1020.89 1020.85 1020.85 1020.85 1021.01 1021.13 1021.21 1021.21 1021.05 1020.97 1020.85
1017.45 1017.65 1017.93 1018.13 1018.37 1018.53 1018.77 1018.97 1019.13 1019.01 1019.05 1019.05 1019.09 1019.21 1019.41 1019.57 1019.77 1019.81 1019.89 1020.05 1020.69 1021.53 1022.25 1022.45 1022.41 1022.17 1022.01 1022.09 1022.01 1021.49 1020.89 1020.61 1020.33 1020.09 1019.97 1020.09 1020.77 1020.37 1019.49 1019.49 1019.69 1019.61 1019.77 1019.85 1020.45 1020.53 1020.61 1020.57 1020.61 1020.77 1020.81 1020.73 1020.69 1020.73 1020.97 1021.73 1021.85 1021.89 1021.89 1021.77 1021.61 1021.45 1021.17
1018.17 1018.25 1018.33 1018.53 1018.69 1018.81 1018.77 1018.81 1018.89 1018.85 1019.01 1019.05 1019.21 1019.37 1019.57 1019.69 1019.69 1019.85 1020.05 1020.49 1021.13 1021.69 1022.21 1022.57 1022.45 1022.33 1022.29 1022.33 1022.05 1021.49 1020.93 1020.49 1020.29 1020.21 1020.05 1020.53 1020.41 1019.41 1019.57 1019.41 1019.45 1019.57 1019.73 1020.21 1021.13 1020.85 1020.85 1020.89 1020.85 1020.85 1020.85 1020.89 1020.85 1020.73 1020.77 1021.65 1021.97 1021.97 1022.09 1022.21 1022.21 1022.05 1021.89
1018.61 1018.61 1018.65 1018.73 1018.93 1019.17 1019.25 1019.29 1019.25 1019.13 1019.01 1019.13 1019.29 1019.41 1019.49 1019.65 1019.97 1020.29 1020.61 1020.81 1021.13 1021.85 1022.41 1022.81 1022.77 1022.61 1022.49 1022.49 1022.41 1022.01 1021.17 1020.61 1020.49 1020.65 1020.45 1020.09 1019.57 1019.45 1019.61 1020.13 1020.33 1019.81 1019.97 1020.85 1020.97 1021.01 1021.09 1020.97 1020.85 1020.81 1020.81 1020.85 1020.93 1020.89 1020.61 1021.05 1021.37 1021.93 1022.17 1022.21 1022.21 1022.13 1022.01
1019.17 1019.09 1019.17 1019.29 1019.37 1019.53 1019.53 1019.53 1019.65 1019.61 1019.53 1019.49 1019.41 1019.49 1019.53 1019.81 1020.25 1020.53 1020.81 1021.13 1021.49 1021.77 1022.29 1022.73 1022.93 1022.77 1022.65 1022.69 1022.53 1022.13 1021.37 1020.77 1020.53 1020.49 1020.01 1019.81 1019.93 1020.01 1019.97 1020.53 1021.17 1021.37 1021.41 1021.53 1021.45 1021.33 1021.37 1021.29 1020.85 1020.73 1020.73 1020.85 1020.97 1020.97 1020.89 1020.81 1021.13 1021.53 1021.81 1021.85 1021.93 1021.93 1021.97
1019.61 1019.61 1019.73 1019.85 1019.77 1019.61 1019.49 1019.45 1019.57 1019.69 1019.89 1019.97 1019.97 1020.05 1020.37 1020.45 1020.61 1020.77 1020.97 1021.21 1021.41 1021.65 1022.17 1022.77 1023.13 1023.05 1022.93 1022.81 1022.77 1022.41 1021.73 1021.01 1021.05 1021.37 1021.13 1020.77 1020.73 1020.77 1020.97 1021.09 1021.17 1021.37 1021.53 1021.65 1021.73 1021.89 1021.77 1021.81 1021.41 1020.93 1020.81 1020.81 1021.01 1021.17 1021.25 1021.09 1021.05 1021.05 1021.25 1021.33 1021.41 1021.57 1021.61
1020.05 1019.97 1020.01 1020.29 1020.49 1020.41 1020.21 1020.09 1019.97 1019.89 1019.81 1019.77 1020.01 1020.33 1020.69 1020.81 1021.01 1021.25 1021.45 1021.81 1022.25 1022.41 1022.53 1022.73 1023.21 1023.17 1023.13 1023.01 1022.85 1022.33 1021.57 1021.45 1021.45 1021.05 1020.85 1021.05 1020.97 1020.85 1020.97 1021.41 1021.45 1021.85 1021.85 1021.93 1021.97 1022.13 1022.17 1021.97 1021.97 1021.61 1021.17 1020.89 1021.21 1021.69 1021.81 1021.25 1021.05 1021.25 1021.13 1021.25 1021.37 1021.45 1021.37
1020.61 1020.49 1020.33 1020.25 1020.37 1020.65 1020.73 1020.49 1020.33 1020.37 1020.41 1020.61 1020.77 1020.93 1021.21 1021.29 1021.37 1021.41 1021.57 1021.89 1022.29 1022.69 1023.01 1023.01 1022.93 1023.29 1023.25 1023.21 1023.05 1022.85 1022.33 1022.41 1022.97 1022.57 1021.33 1020.93 1020.77 1020.77 1020.69 1021.17 1021.81 1022.21 1022.21 1022.21 1022.21 1022.29 1022.29 1022.21 1022.13 1022.05 1021.37 1021.45 1021.65 1021.61 1021.25 1021.21 1020.85 1021.09 1021.09 1020.97 1021.01 1021.13 1021.25
1021.25 1021.13 1020.93 1020.73 1020.69 1020.69 1020.81 1020.89 1020.57 1020.57 1020.73 1020.81 1020.81 1021.01 1021.09 1021.25 1021.49 1021.69 1021.69 1021.89 1022.41 1022.81 1023.09 1023.25 1023.21 1023.25 1023.37 1023.33 1023.41 1023.33 1023.41 1023.29 1023.13 1022.73 1022.13 1021.65 1020.93 1020.57 1020.77 1021.77 1022.61 1022.77 1022.41 1022.29 1022.45 1022.41 1022.41 1022.45 1022.41 1022.05 1021.85 1021.93 1022.01 1021.77 1021.41 1020.97 1020.73 1020.93 1021.05 1020.89 1020.85 1021.01 1021.01
1021.69 1021.69 1021.57 1021.41 1021.33 1021.33 1021.21 1021.05 1020.93 1020.73 1020.41 1020.33 1020.53 1020.61 1020.57 1020.65 1020.77 1021.17 1021.57 1021.85 1022.21 1022.73 1023.17 1023.41 1023.49 1023.45 1023.57 1023.61 1023.49 1023.41 1023.33 1023.29 1023.25 1023.09 1022.89 1021.85 1021.17 1021.25 1021.69 1022.13 1022.57 1022.69 1022.53 1022.45 1022.45 1022.45 1022.41 1022.49 1022.21 1022.01 1022.13 1022.17 1022.17 1021.97 1021.37 1020.97 1021.29 1020.93 1020.81 1021.13 1021.41 1021.37 1021.21
Wind_Speed
4 4 5 6 5 3 7 7 6 6 6 6 6 6 6 6 6 6 6 5 5 6 6 5 5 5 3 4 1 3 4 2 2 1 3 3 4 4 4 2 3 4 4 5 4 2 4 5 4 3 4 4 5 5 4 4 5 5 4 3 4 3 3
5 5 4 4 6 5 7 6 6 6 6 6 6 5 6 6 6 5 5 5 4 4 3 3 4 5 4 5 4 2 4 1 2 1 1 2 2 2 4 4 4 4 5 5 5 4 3 6 6 6 5 4 4 4 4 5 4 4 4 3 3 4 4
7 5 6 7 8 6 6 7 6 6 6 6 6 5 5 6 5 5 5 5 4 4 3 5 4 4 4 4 4 3 4 3 3 3 2 2 1 1 2 3 2 3 2 3 3 3 3 2 4 7 6 7 5 4 4 4 5 5 5 5 4 5 5
8 8 7 7 6 6 7 7 6 5 6 6 5 6 5 6 5 5 5 5 5 3 3 4 4 4 4 3 4 5 5 6 4 4 4 1 1 2 4 2 2 1 2 2 4 4 5 4 4 5 6 4 6 6 4 4 6 6 6 5 5 6 4
4 6 7 9 9 9 8 7 6 6 6 6 5 5 6 6 4 5 5 4 4 3 4 3 3 4 4 4 4 3 3 4 4 4 3 2 3 3 3 2 1 0 2 2 3 3 6 6 6 7 7 7 6 5 5 5 6 6 6 6 6 7 7
4 7 7 7 8 7 7 7 7 6 7 6 6 7 6 6 4 5 4 3 4 3 2 3 1 2 2 2 3 3 3 4 4 4 4 5 4 3 2 2 1 2 2 3 2 4 2 4 7 5 6 5 6 6 6 5 6 7 5 6 6 7 8
6 6 7 7 7 7 6 6 6 5 5 5 6 5 6 5 4 4 4 3 3 3 3 2 1 2 2 2 3 2 4 3 3 4 4 4 6 3 2 1 2 1 2 1 6 5 2 3 4 6 6 5 6 6 6 6 6 7 8 6 5 7 8
6 7 7 7 7 7 6 6 5 5 5 5 6 6 6 5 6 5 4 3 3 3 2 2 2 2 2 2 4 3 1 2 3 2 2 3 5 7 5 3 2 1 2 8 4 2 5 3 4 5 5 7 6 5 7 6 7 6 6 7 7 7 8
7 7 6 7 5 6 7 7 6 6 6 6 6 7 7 6 6 5 4 4 3 3 3 4 4 4 3 2 5 4 4 3 3 3 3 2 2 3 5 6 7 7 6 4 4 3 2 3 4 4 4 6 7 7 6 6 6 7 7 7 7 7 5
12 10 8 8 8 7 7 6 6 6 7 6 6 6 6 6 5 5 4 5 4 4 4 4 3 5 4 4 5 5 5 5 4 4 3 3 2 1 2 3 5 4 3 3 3 2 3 4 4 5 5 4 4 6 7 7 5 6 10 10 8 6 8
12 10 9 10 9 9 7 7 7 7 7 6 6 6 6 7 5 4 5 5 5 4 4 4 5 5 4 4 5 5 5 4 3 3 3 2 2 2 3 3 4 4 5 2 3 5 4 4 3 3 3 5 4 4 4 6 6 5 6 5 7 8 8
11 9 10 9 9 9 9 8 7 7 7 6 6 7 7 7 6 5 5 6 5 5 4 4 5 5 5 5 4 4 4 4 3 3 2 2 2 3 4 4 4 5 5 5 5 5 5 4 4 5 5 5 7 5 5 6 6 3 2 4 7 8 8
11 11 10 9 9 10 9 9 8 7 7 6 6 7 7 7 7 6 6 6 6 5 5 5 5 5 5 5 5 5 4 3 4 4 4 4 4 3 3 4 4 6 5 5 6 6 6 5 5 2 5 3 1 5 5 4 5 6 2 4 7 8 9
10 10 10 10 9 9 8 8 7 6 6 6 7 8 7 8 7 6 6 6 6 6 6 6 5 5 5 5 4 4 5 4 5 4 3 2 4 5 4 5 5 6 7 7 7 6 5 3 3 5 5 4 4 3 5 7 7 7 4 5 5 7 8
10 8 10 10 9 9 7 7 7 6 5 6 8 8 8 7 6 6 6 6 6 6 7 6 6 5 5 4 3 3 4 5 4 5 4 4 4 3 3 4 6 6 6 7 7 7 6 5 5 5 4 5 5 3 3 5 7 6 7 5 6 7 8
9 10 9 9 9 10 9 8 7 6 6 7 8 7 7 7 6 6 6 6 6 6 7 7 6 5 4 5 4 4 4 3 4 4 4 6 6 5 5 4 6 6 5 6 6 5 6 6 5 4 3 2 3 3 2 5 7 7 8 7 6 7 7
9 8 10 8 10 9 9 8 7 7 6 6 7 7 8 7 6 6 6 6 7 6 7 7 6 5 6 5 5 6 5 5 5 4 4 5 6 6 6 6 5 6 6 7 6 5 5 3 2 4 4 4 2 0 2 3 6 7 6 8 7 8 8
2 9 9 9 10 9 9 8 8 7 6 6 7 7 7 6 6 6 5 6 7 7 7 7 7 6 5 5 6 6 6 5 4 3 3 4 4 6 6 6 7 7 5 5 4 4 3 1 3 3 2 4 4 4 1 2 3 5 7 7 7 7 8
3 3 7 8 10 9 8 8 8 7 7 7 6 6 7 6 6 6 6 6 7 7 7 7 7 7 7 6 6 5 4 4 4 4 4 3 3 3 4 4 5 6 5 5 5 3 2 5 2 1 3 4 3 6 5 5 5 4 6 7 8 7 7
5 4 2 6 7 8 8 8 9 8 7 7 6 5 6 6 6 6 7 5 6 7 8 7 7 7 7 6 6 5 5 4 4 4 3 3 4 3 3 3 3 3 3 3 3 2 2 1 2 2 3 2 4 1 5 5 6 7 6 7 7 7 7
6 5 5 5 7 7 7 7 7 7 7 7 6 6 7 6 6 4 5 5 6 6 7 7 7 7 7 6 6 5 5 4 4 3 3 3 3 2 3 4 2 3 1 2 4 2 1 1 2 4 2 3 3 4 3 5 6 6 8 8 7 8 8
6 5 5 7 5 6 8 7 7 8 7 6 5 5 6 7 7 7 6 6 6 5 5 6 4 3 5 7 4 5 5 5 5 4 4 3 3 3 3 3 1 5 7 6 8 7 6 5 5 4 4 4 4 4 5 4 5 6 6 7 8 7 8
6 6 5 6 6 6 6 6 6 7 7 6 5 5 6 6 7 5 5 4 4 4 4 4 6 10 8 4 3 4 4 4 5 5 5 5 5 5 4 4 6 7 7 7 7 7 7 8 7 5 4 3 4 5 6 6 5 5 6 6 5 6 8
6 6 5 5 6 7 7 7 6 6 6 6 6 4 4 5 6 5 6 4 4 3 3 5 10 11 11 11 7 1 5 4 5 5 5 5 6 5 5 4 5 5 5 4 2 4 3 3 3 4 4 3 3 3 6 7 7 6 7 6 2 6 9
5 6 6 7 5 7 7 7 8 7 7 8 6 4 4 4 5 4 4 5 4 3 5 6 10 11 10 10 8 5 4 4 4 4 6 5 5 5 5 5 3 3 4 5 3 6 6 7 5 1 2 3 3 2 1 4 6 7 8 7 6 8 10
7 6 5 5 5 6 6 5 6 7 6 6 5 5 5 5 5 5 4 3 2 4 5 7 9 9 9 10 11 8 5 5 4 5 5 5 5 6 5 5 6 4 5 7 4 5 4 6 7 7 5 4 6 8 9 8 6 6 7 8 7 8 8
7 7 6 6 5 5 4 5 4 4 3 3 5 5 5 5 4 4 3 3 3 7 7 11 8 9 8 8 9 8 6 6 6 6 6 7 6 6 6 5 5 5 4 3 3 5 5 6 4 5 5 6 7 8 10 10 11 10 7 6 8 10 9
8 8 8 8 7 7 7 5 1 2 1 2 4 4 4 4 4 3 2 1 4 6 5 10 10 9 9 9 10 7 5 6 6 6 5 7 9 7 5 7 6 8 6 7 5 4 5 3 5 7 7 6 7 7 7 7 5 4 5 6 8 9 9
7 8 8 7 7 7 9 8 6 4 3 3 4 4 4 4 4 4 4 3 7 5 5 8 9 9 9 9 9 4 4 5 7 7 6 4 8 11 8 6 7 8 8 6 9 8 1 5 6 8 8 8 8 8 4 5 4 4 3 4 5 6 6
7 6 7 7 6 5 4 8 7 6 5 5 5 5 5 4 5 4 4 6 7 5 4 6 7 8 9 10 6 4 6 6 6 7 6 6 11 8 7 8 9 7 9 2 7 6 5 1 6 8 9 9 9 8 5 4 7 8 7 6 6 7 10
7 7 7 8 7 5 4 3 3 1 5 6 6 6 6 6 6 7 7 6 6 5 3 5 7 8 8 9 5 4 6 7 5 8 8 9 8 6 5 4 6 8 5 6 3 6 2 3 6 8 8 8 9 9 7 4 2 4 6 8 8 8 7
9 9 9 9 6 5 5 5 3 2 3 2 5 5 5 6 6 6 7 8 8 6 5 5 9 9 9 10 7 4 5 7 6 8 8 7 6 7 6 6 15 11 7 4 6 2 3 5 6 7 7 7 7 7 7 4 4 4 3 3 4 4 3
9 9 9 9 7 6 5 5 4 5 6 5 5 6 6 6 6 6 6 7 6 6 6 6 8 10 10 10 8 4 5 6 5 5 5 5 4 3 2 4 4 10 12 9 7 4 3 3 5 6 7 6 5 4 6 2 3 4 4 5 4 4 4
10 10 9 8 7 7 7 6 6 7 7 6 7 7 6 6 6 6 6 7 8 7 6 6 7 10 10 10 11 8 4 7 7 7 4 5 6 7 3 3 5 6 6 6 5 6 6 5 3 5 5 5 2 3 6 6 3 2 4 4 3 4 4
8 7 7 7 7 7 5 5 6 6 5 6 6 7 6 6 5 6 6 7 7 6 7 8 6 8 10 11 12 14 8 7 7 6 7 3 3 3 3 5 5 5 6 6 8 7 7 7 5 4 4 2 4 7 5 6 4 4 5 7 6 6 5
8 7 7 7 7 6 5 5 4 5 5 5 5 6 6 6 6 5 5 5 5 6 6 5 8 7 8 9 9 9 8 6 10 7 6 7 6 4 2 8 4 3 7 7 6 6 6 6 5 7 8 4 4 6 6 5 5 4 5 7 6 7 7
8 7 8 7 7 7 7 5 5 4 3 4 4 3 3 4 5 6 6 5 5 6 6 5 5 7 5 5 7 8 9 9 9 6 6 6 6 8 7 7 5 6 6 7 7 6 6 5 5 9 5 3 3 4 5 4 4 7 4 3 5 5 7
Wind_Direction
186 153 197 212 257 196 167 162 155 170 160 153 151 150 147 149 148 147 147 152 155 158 160 158 164 159 186 149 192 79 82 29 354 234 250 210 194 176 200 201 160 141 172 156 186 203 161 146 149 105 114 128 108 102 96 106 87 87 91 83 89 91 84
183 175 197 216 213 200 170 162 158 156 152 145 148 144 148 140 147 141 143 143 150 137 153 146 145 162 155 137 152 167 125 176 170 163 281 266 224 317 180 209 180 179 183 156 172 181 193 153 155 153 135 124 109 98 89 80 76 89 98 95 86 97 100
177 180 189 195 207 174 179 157 154 152 145 145 139 142 132 129 137 133 137 135 126 132 164 130 129 119 132 143 138 170 170 182 194 176 195 224 210 152 315 259 270 147 202 115 177 153 44 351 159 158 150 148 139 131 131 125 123 124 128 134 135 112 103
186 179 179 196 191 192 159 157 153 146 146 135 135 124 123 118 126 129 128 134 124 131 125 117 145 149 145 156 169 182 163 175 206 193 197 197 231 203 215 195 170 311 38 132 253 163 149 192 172 143 147 169 133 132 125 129 141 131 127 126 119 99 96
199 189 185 181 184 168 160 152 152 146 133 130 130 123 126 122 129 117 119 120 125 128 118 120 144 159 169 161 180 183 189 193 188 189 180 185 203 229 214 221 182 261 175 256 237 253 150 189 152 158 164 174 141 121 129 156 130 122 125 118 111 109 105
202 237 191 183 177 162 159 156 150 148 144 136 146 142 127 138 139 118 122 122 108 113 102 111 100 22 83 150 146 179 183 194 189 193 185 183 197 219 203 185 236 195 177 211 268 263 219 171 159 160 141 152 132 129 140 155 135 118 118 119 119 117 113
214 212 207 176 167 168 165 149 151 144 138 134 135 140 139 148 122 118 109 102 109 109 109 66 87 160 122 170 136 161 185 167 178 182 204 170 170 153 198 198 234 189 237 352 259 227 175 162 145 152 150 140 142 146 145 147 139 133 118 102 109 114 105
204 232 189 174 181 161 146 141 139 135 138 139 139 132 141 138 120 126 128 121 114 112 109 145 146 111 134 215 112 124 127 148 146 156 145 169 161 162 183 202 113 111 229 238 196 320 155 160 152 155 160 142 144 152 145 142 135 118 118 127 127 108 115
218 213 196 172 160 147 138 150 142 143 140 135 131 133 141 140 136 134 142 128 133 136 152 150 161 142 147 116 116 132 135 128 129 131 134 153 168 181 172 172 174 185 195 201 142 211 146 132 138 138 152 160 152 149 150 136 135 127 130 119 111 117 120
201 188 165 149 143 141 140 135 131 118 121 124 131 134 141 136 141 139 137 133 142 153 146 158 150 126 153 129 129 147 141 145 153 129 138 150 131 154 210 169 130 211 171 141 135 122 90 102 145 163 174 171 157 149 151 138 138 140 149 145 127 135 123
169 161 151 147 143 144 143 133 133 137 147 143 133 140 140 138 138 132 128 140 145 145 153 157 145 135 142 131 136 146 129 127 129 147 168 132 133 160 185 183 164 162 119 119 128 120 132 137 143 147 171 129 162 161 137 149 141 153 146 176 144 137 136
150 150 149 149 142 141 143 137 138 141 139 135 140 141 151 147 142 144 137 145 147 152 159 139 138 153 147 135 147 128 145 176 158 156 145 142 151 181 183 180 165 133 147 155 142 127 125 156 155 177 169 165 160 146 167 143 158 147 160 140 115 138 144
152 148 148 146 146 148 150 142 142 148 146 143 145 150 163 149 149 149 154 148 156 158 160 150 170 153 154 155 162 169 163 171 161 166 153 184 170 163 184 158 152 142 162 151 144 143 151 171 213 155 85 90 41 143 131 157 150 123 187 130 138 143 146
144 140 144 145 147 151 145 141 145 152 150 155 151 160 164 149 155 156 153 155 158 162 161 171 166 163 167 172 178 146 172 181 164 146 130 143 125 148 160 161 156 152 157 152 149 145 151 152 128 134 146 121 131 168 192 162 151 145 145 129 147 153 152
144 140 142 144 145 145 138 142 142 145 156 154 157 164 157 154 153 167 155 158 154 156 171 172 167 177 175 164 142 174 174 180 155 132 172 146 113 110 136 158 153 150 153 149 146 157 151 161 158 145 152 165 140 150 137 134 125 153 144 164 169 149 152
142 139 141 146 148 152 151 152 148 147 164 157 165 163 153 158 162 167 158 159 157 153 173 165 171 183 157 160 171 175 188 148 120 146 153 157 148 133 137 138 136 143 149 146 168 167 155 189 175 140 124 131 123 132 208 152 149 151 163 165 177 158 167
133 141 148 156 148 147 153 152 147 158 161 165 163 168 157 167 164 169 165 164 156 162 159 161 172 169 162 169 171 168 160 139 157 164 145 133 128 140 132 139 122 137 146 160 176 153 189 185 253 131 161 119 123 322 43 358 164 146 173 166 189 178 168
313 154 156 154 148 151 155 152 147 159 159 165 166 169 162 171 167 171 169 173 160 164 156 162 162 163 155 164 164 157 157 157 155 149 81 79 105 118 137 142 147 133 150 152 139 181 169 148 198 136 198 149 163 165 192 260 258 177 163 183 179 203 163
256 261 156 145 151 154 153 156 153 159 164 165 160 175 161 176 168 172 172 182 163 164 163 160 161 158 156 157 152 160 141 145 146 122 138 147 105 113 120 123 131 146 153 158 177 196 158 167 223 235 195 250 203 164 192 191 235 244 186 192 178 202 175
112 39 57 146 148 158 163 161 162 159 165 163 154 172 165 162 172 175 174 178 165 169 162 164 158 159 156 155 152 142 151 154 140 137 146 124 126 125 134 118 136 128 149 168 165 171 170 201 256 270 279 261 278 223 181 212 212 219 223 209 191 202 191
101 96 77 114 152 155 156 160 167 151 166 157 157 174 164 164 166 171 173 172 168 166 157 170 161 162 165 156 151 153 154 164 148 149 153 137 123 127 120 140 149 159 135 54 35 22 18 267 218 219 241 262 263 280 255 214 221 232 217 217 217 207 205
99 93 94 97 114 154 155 158 166 161 156 149 158 169 162 166 164 183 169 175 159 152 163 169 153 174 169 159 157 169 160 177 167 164 173 161 160 160 162 133 108 64 59 51 61 63 60 47 13 21 353 341 311 279 262 283 282 242 237 237 224 217 209
102 83 78 90 91 82 115 147 150 148 147 142 153 159 166 162 163 156 149 141 135 145 174 88 46 50 31 33 173 167 171 181 193 182 190 182 184 193 181 175 106 93 68 57 56 45 36 42 44 22 354 340 333 317 299 277 252 287 285 254 242 251 229
137 151 133 105 102 96 85 77 75 83 100 122 129 133 144 145 157 154 149 144 132 168 102 45 34 38 30 29 0 248 187 205 202 202 201 205 197 198 207 209 152 132 142 150 143 149 125 62 53 45 41 51 17 326 307 295 281 253 229 219 155 267 259
120 129 138 150 121 93 83 78 73 69 79 84 83 80 83 110 131 131 144 150 144 128 73 17 39 37 17 17 24 347 290 219 206 222 214 211 213 207 204 223 222 189 207 209 239 176 184 185 173 150 317 325 298 230 189 262 293 297 285 275 249 215 236
96 98 104 99 86 87 80 66 72 75 64 77 89 87 78 63 61 60 54 71 89 83 77 20 48 39 32 6 4 339 278 257 233 227 237 230 237 228 219 214 219 176 235 156 232 254 241 188 189 191 204 230 253 245 243 219 223 248 291 293 293 291 273
118 120 119 109 110 102 93 78 58 71 81 65 83 86 90 88 83 74 64 75 37 48 47 3 16 45 32 8 360 344 286 286 278 264 246 237 234 249 238 231 225 220 227 188 230 244 257 262 203 197 217 239 251 227 221 223 232 235 237 263 281 280 280
127 137 143 148 151 137 116 103 97 106 192 133 103 107 106 116 108 107 100 108 88 68 39 5 4 22 25 360 352 330 301 293 272 261 292 332 295 253 252 251 246 250 238 213 164 171 235 255 277 270 259 258 259 275 266 255 240 243 234 243 261 263 267
123 130 133 141 149 148 146 156 178 168 173 122 108 101 115 122 135 135 136 133 89 75 41 21 7 14 11 359 348 306 282 277 267 263 255 239 266 263 243 247 264 259 256 257 132 177 244 263 259 266 271 268 265 257 262 78 81 58 18 343 351 346 340
57 79 91 105 94 76 107 152 166 171 171 163 149 146 142 140 129 123 107 98 93 85 64 23 16 19 13 4 344 306 278 264 264 260 272 243 242 246 252 246 244 238 247 72 30 286 211 262 253 269 273 276 273 267 217 125 83 70 66 61 45 40 33
64 86 90 101 98 93 91 69 36 304 175 165 155 147 136 107 83 78 81 94 103 106 87 39 27 28 16 13 357 310 298 279 287 294 259 251 263 278 284 296 291 275 353 44 221 335 343 190 259 269 273 275 277 270 248 133 146 85 96 92 88 80 73
48 56 63 66 57 69 69 77 91 4 40 61 123 122 120 113 90 81 84 93 102 94 85 58 32 22 22 18 7 314 308 290 255 254 273 284 299 282 311 38 33 29 59 58 58 37 336 290 273 276 277 276 280 286 284 171 175 149 163 168 134 128 104
53 60 63 57 51 64 89 92 92 127 140 141 116 102 57 82 88 76 77 83 78 80 78 56 31 20 23 21 15 346 295 302 300 303 321 358 344 352 61 116 80 42 31 31 18 0 289 327 295 291 295 281 284 320 321 241 207 192 204 219 200 191 194
44 48 57 67 53 41 42 58 61 58 55 60 79 82 93 99 95 95 91 74 59 46 42 61 48 32 26 22 16 9 327 17 1 343 350 340 337 321 18 78 79 36 31 25 357 336 301 277 308 292 282 275 19 301 301 268 186 210 247 239 230 222 200
37 41 48 61 66 61 37 46 65 65 67 82 83 88 90 88 89 90 94 94 94 86 54 38 64 45 35 28 23 19 19 24 7 333 323 300 274 327 342 96 55 16 6 9 353 322 313 301 284 275 266 27 349 348 332 288 261 191 237 246 237 239 234
40 33 35 46 56 66 73 57 66 101 121 113 115 120 120 126 123 114 109 106 111 104 95 80 67 66 46 41 34 28 20 360 341 333 336 317 298 255 96 82 73 32 16 6 336 328 309 317 282 258 286 305 289 298 289 250 254 216 228 242 235 227 236
45 43 40 43 48 48 44 48 46 37 37 96 113 116 129 147 142 134 133 134 144 139 124 96 83 87 81 64 38 33 9 353 349 338 323 302 340 18 21 19 25 8 8 338 317 306 290 261 267 321 337 308 285 269 258 256 280 250 242 4 318 273 258